[[{"header":{"parameterUnit":"m.s-1","parameterCategory":2,"la1":30.2991,"la2":30.254,"lo1":-89.0895,"lo2":-89.0444,"dy":0.0017,"dx":0.0017,"nx":28,"ny":28,"refTime":"2023-10-09T03:00:00:Z","depth":"0","parameterNumber":2,"parameterNumberName":"U-component_of_CURRENTS"},"data":[0,0,0,0,0,0,0,0,0,0,0,0,0,0,0,0,0,0,0,0,0,0,0,0,0,0,0,0,0,0,0,0,0,0,0,0,0,0,0,0,0,0,0,0,0,0,0,0,0,0,0,0,0,0,0,0,0,0,0.1913,0.1913,0,0.1906,0.1906,0.1906,0.1871,0.187,0.187,0.1869,0.1773,0.1771,0.177,0,0,0,0,0,0,0,0,0,0,0,0,0,0.1953,0.1952,0.1913,0.1913,0.1914,0.1907,0.1906,0.1906,0.1871,0.187,0.1869,0.1869,0.1774,0.1772,0.1769,0,0,0,0,0,0,0,0,0,0,0,0,0,0.1938,0.1952,0.1913,0.1897,0.1896,0.1907,0.1906,0.1906,0.1871,0.187,0.1869,0.1868,0.1775,0.1772,0.1769,0.1769,0,0,0.176,0.1759,0,0,0,0,0,0,0,0,0.1939,0.1936,0.1899,0.1898,0.1897,0.1891,0.1885,0.1857,0.1871,0.1878,0.1869,0.1868,0.1807,0.1801,0.18,0.1765,0.1761,0.176,0.1758,0.1757,0.1756,0,0,0,0,0,0,0,0.194,0.1936,0.1908,0.19,0.1898,0.191,0.1906,0.188,0.1844,0.1877,0.1875,0.1879,0.1805,0.1803,0.1797,0.1759,0.176,0.1757,0.1755,0.1754,0.1771,0.1773,0,0,0,0,0,0,0.1943,0.1937,0.1908,0.1908,0.1918,0.191,0.1905,0.1892,0.1846,0.184,0.1879,0.1877,0.1808,0.18,0.1793,0.1816,0.1757,0.1754,0.1752,0.1769,0.1772,0.1774,0,0,0,0,0,0,0.1944,0.194,0.1909,0.1926,0.1923,0.191,0.1895,0.1892,0.1899,0.1849,0.184,0.1891,0.1807,0.1797,0.1783,0.1811,0.1753,0.175,0.1767,0.177,0.1773,0.1845,0,0,0,0,0,0,0.1944,0.194,0.1942,0.1925,0.1922,0.1932,0.1896,0.1893,0.1903,0.19,0.1856,0.1846,0.1806,0.1788,0.178,0.1806,0.1748,0.1764,0.1768,0.1772,0.184,0.185,0.1859,0,0,0,0,0,0.1946,0.1962,0.1942,0.1939,0.1921,0.1934,0.1934,0.1921,0.1905,0.1921,0.1886,0.1848,0.181,0.1787,0.1777,0.1803,0.1762,0.1767,0.1772,0.1835,0.1848,0.1859,0,0,0,0,0,0,0.1993,0.1959,0.1937,0.1944,0.1943,0.1929,0.1944,0.1934,0.1922,0.1912,0.1862,0.185,0.1857,0.1825,0.1802,0.1826,0.1785,0.1789,0.1837,0.1849,0.1859,0.1846,0.1745,0,0,0,0,0,0.2,0.1997,0.1973,0.1984,0.1978,0.1962,0.1968,0.1958,0.1942,0.1937,0.1908,0.1882,0.1872,0.1855,0.1843,0.184,0.1796,0.1859,0.1869,0.1877,0.1864,0.1851,0.1857,0.1791,0.1791,0.1791,0,0,0.2034,0.2007,0.2014,0.1994,0.1984,0.198,0.1963,0.1977,0.1978,0.1926,0.1924,0.1917,0.1884,0.189,0.1891,0.1861,0.187,0.1883,0.189,0.1873,0.1857,0.1863,0.1868,0.1794,0.1793,0.1793,0,0,0.2077,0.2059,0.2058,0.2047,0.203,0.202,0.2027,0.2016,0.2014,0.2014,0.1989,0.2001,0.1969,0.1962,0.1949,0.2008,0.1933,0.201,0.2031,0.2019,0.2023,0.2027,0.1959,0.1956,0.2003,0.2003,0.2003,0,0.2115,0.2087,0.2071,0.2051,0.2042,0.2036,0.203,0.2036,0.2029,0.2026,0.2022,0.2016,0.2005,0.2006,0.2032,0.2028,0.1982,0.1983,0.2029,0.2031,0.2033,0.1964,0.1959,0.2007,0.2007,0.2006,0.2006,0,0.214,0.2112,0.2116,0.2073,0.2074,0.2078,0.2064,0.2076,0.2075,0.2072,0.209,0.2088,0.2074,0.2098,0.2075,0.2096,0.2044,0.205,0.1991,0.2044,0.1967,0.1961,0.2013,0.2012,0.201,0.2009,0,0,0.2227,0.2145,0.2139,0.2103,0.2076,0.2077,0.2085,0.2083,0.2082,0.2105,0.2102,0.2135,0.2136,0.2125,0.2122,0.2123,0.2112,0.2089,0.2086,0.2006,0.2031,0.1925,0.1907,0.2117,0.2117,0.2117,0.1964,0,0.2243,0.2191,0.2152,0.2125,0.2102,0.2081,0.2085,0.2088,0.2096,0.21,0.2121,0.2122,0.2143,0.2138,0.2151,0.2126,0.2101,0.2149,0.2005,0.1999,0.1887,0.19,0.1807,0.1657,0.1957,0.1956,0.1955,0,0.2274,0.2222,0.2183,0.2112,0.2101,0.2091,0.2079,0.2078,0.2086,0.209,0.2105,0.2108,0.2119,0.2133,0.2099,0.212,0.2074,0.2056,0.2049,0.1917,0.1883,0.1659,0.1633,0.1569,0.1945,0.1946,0.1947,0,0.2331,0.2248,0.2209,0.2187,0.2121,0.2103,0.2078,0.2079,0.2066,0.2075,0.2063,0.2084,0.2065,0.2057,0.2016,0.2049,0.1951,0.1989,0.1841,0.183,0.1704,0.1683,0.1586,0.1947,0.1947,0.1948,0.1948,0,0.2359,0.2327,0.2223,0.2202,0.2155,0.2114,0.2083,0.2073,0.2053,0.2025,0.205,0.2022,0.2045,0.1994,0.1982,0.1866,0.1913,0.1824,0.1789,0.1725,0.1709,0.1609,0.1594,0.1942,0.1943,0.1944,0.1945,0,0.2419,0.2359,0.2302,0.2208,0.2177,0.2144,0.2053,0.2033,0.2018,0.1979,0.1971,0.1952,0.1879,0.1863,0.1812,0.178,0.1637,0.1655,0.1548,0.1503,0.1329,0.1321,0.1127,0.111,0.1475,0.1471,0.1468,0,0.2438,0.2414,0.2303,0.2256,0.2201,0.2132,0.2083,0.203,0.1992,0.1924,0.1895,0.1815,0.1748,0.1612,0.1545,0.1451,0.1455,0.1296,0.1367,0.128,0.1247,0.1244,0.1247,0.1217,0.1212,0.1209,0.1205,0,0.2463,0.2428,0.2369,0.2262,0.2189,0.21,0.2014,0.1975,0.1905,0.1855,0.175,0.1687,0.1537,0.1392,0.1261,0.121,0.1212,0.1211,0.1165,0.106,0.1004,0.0983,0.1328,0.1171,0.1174,0.1177,0.1179,0.118,0.2483,0.2435,0.2348,0.2237,0.2157,0.2047,0.1952,0.1868,0.1771,0.1629,0.1624,0.1462,0.1303,0.1111,0.1036,0.0833,0.0932,0.0801,0.08,0.0805,0.0788,0.1023,0.0812,0.0814,0.0815,0.0816,0.0817,0,0.2466,0.24,0.2313,0.2161,0.2047,0.2014,0.1881,0.1764,0.1608,0.1493,0.1375,0.1139,0.0948,0.08,0.0564,0.0457,0.0484,0.0414,0.0417,0.045,0.0677,0.067,0.0364,0.0365,0.0365,0.0365,0.0365,0.0365,0.246,0.2359,0.2278,0.2067,0.1964,0.1774,0.168,0.1535,0.1411,0.1143,0.0954,0.0868,0.0678,0.0383,0.0167,0.0151,0.0155,0.0075,0.0144,0.0325,0.0364,0.0401,0.0393,0.0034,0.0033,-0.0084,-0.0085,-0.0086]},{"header":{"parameterUnit":"m.s-1","parameterCategory":2,"la1":30.2991,"la2":30.254,"lo1":-89.0895,"lo2":-89.0444,"dy":0.0017,"dx":0.0017,"nx":28,"ny":28,"refTime":"2023-10-09T03:00:00:Z","depth":"0","parameterNumber":3,"parameterNumberName":"V-component_of_CURRENTS"},"data":[0,0,0,0,0,0,0,0,0,0,0,0,0,0,0,0,0,0,0,0,0,0,0,0,0,0,0,0,0,0,0,0,0,0,0,0,0,0,0,0,0,0,0,0,0,0,0,0,0,0,0,0,0,0,0,0,0,0,0.0497,0.0498,0,0.0513,0.0513,0.0513,0.0505,0.0505,0.0505,0.0505,0.0485,0.0485,0.0484,0,0,0,0,0,0,0,0,0,0,0,0,0,0.0413,0.0414,0.0497,0.0498,0.0498,0.0513,0.0513,0.0513,0.0505,0.0505,0.0505,0.0504,0.0485,0.0485,0.0484,0,0,0,0,0,0,0,0,0,0,0,0,0,0.0439,0.0415,0.0497,0.0498,0.0498,0.0513,0.0513,0.0513,0.0505,0.0505,0.0505,0.0504,0.0485,0.0485,0.0484,0.0487,0,0,0.0483,0.0482,0,0,0,0,0,0,0,0,0.0438,0.0442,0.0497,0.0498,0.0498,0.0509,0.0476,0.0504,0.0505,0.05,0.0505,0.0504,0.0491,0.049,0.0491,0.0487,0.0486,0.0483,0.0482,0.0482,0.0482,0,0,0,0,0,0,0,0.0436,0.0441,0.0501,0.0498,0.0498,0.0481,0.0485,0.0481,0.0495,0.05,0.0501,0.0506,0.0491,0.0492,0.0491,0.0485,0.0483,0.0482,0.0482,0.0482,0.048,0.048,0,0,0,0,0,0,0.0442,0.044,0.0501,0.0502,0.0469,0.0483,0.0487,0.0504,0.0496,0.0495,0.0506,0.0506,0.0493,0.0491,0.049,0.0494,0.0482,0.0482,0.0481,0.048,0.048,0.048,0,0,0,0,0,0,0.044,0.0447,0.05,0.0472,0.0478,0.0486,0.0504,0.0504,0.0507,0.0501,0.0499,0.0509,0.0493,0.0491,0.0488,0.0493,0.0481,0.0481,0.0479,0.048,0.048,0.0501,0,0,0,0,0,0,0.0438,0.0447,0.0459,0.0473,0.048,0.0512,0.0505,0.0505,0.0512,0.0511,0.0502,0.05,0.0492,0.0489,0.0487,0.0492,0.0481,0.0479,0.0479,0.048,0.05,0.0502,0.0504,0,0,0,0,0,0.0435,0.0458,0.046,0.0467,0.0497,0.0513,0.0514,0.0516,0.0512,0.0516,0.0509,0.0501,0.0491,0.0489,0.0487,0.0492,0.0479,0.0479,0.048,0.05,0.0502,0.0504,0,0,0,0,0,0,0.0426,0.046,0.0462,0.0493,0.0502,0.0512,0.0519,0.0519,0.0517,0.0515,0.0504,0.0502,0.0501,0.0494,0.0492,0.0492,0.0483,0.0484,0.0499,0.0501,0.0503,0.0519,0.048,0,0,0,0,0,0.0431,0.0456,0.0476,0.0498,0.0505,0.0511,0.0517,0.0519,0.0521,0.052,0.0514,0.0507,0.0502,0.05,0.0495,0.0496,0.0493,0.0498,0.05,0.0501,0.0513,0.0519,0.0523,0.0482,0.0482,0.0482,0,0,0.0433,0.0454,0.0467,0.0497,0.0503,0.0516,0.0513,0.0526,0.0533,0.0518,0.0522,0.0514,0.0504,0.0505,0.0504,0.0499,0.0508,0.0502,0.0503,0.0515,0.052,0.0524,0.0528,0.0482,0.0482,0.0482,0,0,0.0442,0.0468,0.0486,0.0498,0.0515,0.0522,0.0527,0.0539,0.054,0.0545,0.0534,0.0534,0.0525,0.0523,0.0519,0.053,0.0518,0.0523,0.0546,0.0551,0.0555,0.0558,0.0546,0.0548,0.0524,0.0524,0.0524,0,0.0438,0.0471,0.0491,0.0507,0.052,0.0526,0.0541,0.0545,0.0552,0.0559,0.0549,0.055,0.0537,0.0545,0.0545,0.0535,0.053,0.0537,0.0554,0.0558,0.0561,0.0547,0.0549,0.0525,0.0525,0.0525,0.0525,0,0.0458,0.0482,0.0494,0.052,0.0535,0.055,0.0564,0.0572,0.0575,0.0581,0.0592,0.0579,0.0584,0.0574,0.0561,0.0576,0.0561,0.0556,0.055,0.0566,0.0551,0.0552,0.0527,0.0526,0.0526,0.0526,0,0,0.0448,0.05,0.0501,0.0521,0.0546,0.0564,0.0578,0.06,0.0621,0.0618,0.0643,0.0628,0.0629,0.0626,0.0611,0.0612,0.0616,0.0593,0.0593,0.0584,0.0615,0.0617,0.0619,0.0613,0.0614,0.0614,0.0591,0,0.0452,0.0497,0.0516,0.0549,0.0574,0.059,0.0608,0.0628,0.0642,0.0667,0.0661,0.0676,0.0646,0.0652,0.0648,0.063,0.0624,0.0622,0.0599,0.0598,0.0601,0.0623,0.0672,0.0657,0.0592,0.0592,0.0593,0,0.0453,0.0491,0.0534,0.0584,0.0596,0.0614,0.066,0.0677,0.0707,0.0719,0.0734,0.0732,0.0734,0.0709,0.0687,0.0687,0.0655,0.0634,0.0633,0.0634,0.0605,0.0633,0.0662,0.07,0.0595,0.0595,0.0595,0,0.0447,0.0496,0.0539,0.0555,0.0612,0.0632,0.0659,0.0695,0.0726,0.0758,0.0786,0.0784,0.079,0.0761,0.0712,0.0703,0.0686,0.0667,0.0636,0.0635,0.0674,0.0675,0.0744,0.0655,0.0655,0.0655,0.0655,0,0.0448,0.0478,0.0542,0.0569,0.0621,0.0649,0.0701,0.0727,0.0772,0.0823,0.0817,0.0848,0.0805,0.0788,0.0736,0.0695,0.0703,0.0651,0.0639,0.068,0.0682,0.0713,0.0717,0.0654,0.0654,0.0655,0.0655,0,0.0441,0.0477,0.0536,0.0605,0.0623,0.0665,0.0733,0.0776,0.0809,0.0875,0.0889,0.0899,0.0877,0.0824,0.0773,0.073,0.0714,0.0664,0.0706,0.07,0.0713,0.0715,0.0749,0.0789,0.0638,0.0638,0.0638,0,0.0452,0.048,0.0566,0.0606,0.064,0.0699,0.0743,0.0791,0.0842,0.0908,0.0946,0.0941,0.095,0.0873,0.0802,0.0725,0.0723,0.0709,0.0706,0.0736,0.0729,0.0725,0.0756,0.0754,0.0755,0.0756,0.0756,0,0.0479,0.0505,0.056,0.0637,0.0693,0.0756,0.0821,0.0866,0.093,0.098,0.1032,0.1041,0.0987,0.094,0.0839,0.0787,0.0771,0.0723,0.0757,0.0837,0.0836,0.0861,0.0729,0.0764,0.0763,0.0762,0.0762,0.0762,0.0501,0.054,0.0604,0.0673,0.0739,0.0807,0.0852,0.0926,0.0999,0.1074,0.1079,0.1096,0.1063,0.094,0.0887,0.0845,0.0818,0.0834,0.0833,0.0825,0.0881,0.0756,0.0776,0.0776,0.0775,0.0774,0.0774,0,0.0521,0.0559,0.0633,0.0714,0.0779,0.0809,0.0901,0.0948,0.1029,0.1093,0.1127,0.1126,0.1102,0.1041,0.0985,0.0969,0.097,0.096,0.0987,0.1014,0.0914,0.0939,0.0993,0.0993,0.0993,0.0993,0.0993,0.0993,0.0529,0.0587,0.0621,0.0722,0.0779,0.085,0.0897,0.0978,0.1038,0.1096,0.1108,0.1111,0.1108,0.1083,0.1085,0.1081,0.1119,0.1093,0.1099,0.1049,0.1038,0.1028,0.1055,0.1132,0.1132,0.1235,0.1236,0.1236]}],[{"header":{"parameterUnit":"m.s-1","parameterCategory":2,"la1":30.2991,"la2":30.254,"lo1":-89.0895,"lo2":-89.0444,"dy":0.0017,"dx":0.0017,"nx":28,"ny":28,"refTime":"2023-10-09T03:00:00:Z","depth":"2","parameterNumber":2,"parameterNumberName":"U-component_of_CURRENTS"},"data":[0,0,0,0,0,0,0,0,0,0,0,0,0,0,0,0,0,0,0,0,0,0,0,0,0,0,0,0,0,0,0,0,0,0,0,0,0,0,0,0,0,0,0,0,0,0,0,0,0,0,0,0,0,0,0,0,0,0,0.1272,0.1272,0,0.13,0.13,0.1301,0.1319,0.1319,0.1319,0.1319,0.1346,0.1347,0.1347,0,0,0,0,0,0,0,0,0,0,0,0,0,0.1265,0.1265,0.1272,0.1272,0.1272,0.13,0.13,0.1301,0.1319,0.1319,0.1319,0.1319,0.1346,0.1346,0.1347,0,0,0,0,0,0,0,0,0,0,0,0,0,0.1279,0.1265,0.1272,0.1283,0.1285,0.13,0.13,0.1301,0.1319,0.1319,0.1319,0.1319,0.1345,0.1346,0.1347,0.1355,0,0,0.1351,0.1351,0,0,0,0,0,0,0,0,0.1278,0.128,0.1281,0.1283,0.1284,0.1305,0.1308,0.1319,0.1319,0.1307,0.1319,0.1319,0.1331,0.1333,0.1341,0.1356,0.1357,0.1351,0.1352,0.1352,0.1352,0,0,0,0,0,0,0,0.1277,0.1279,0.1284,0.1282,0.1283,0.1298,0.13,0.131,0.132,0.1308,0.1309,0.131,0.1332,0.134,0.1341,0.1358,0.1351,0.1352,0.1353,0.1353,0.1414,0.1415,0,0,0,0,0,0,0.1269,0.1278,0.1283,0.1285,0.128,0.1298,0.13,0.1299,0.132,0.1323,0.131,0.1311,0.1338,0.134,0.1342,0.1382,0.1352,0.1353,0.1354,0.1414,0.1415,0.1416,0,0,0,0,0,0,0.1269,0.127,0.1282,0.1281,0.1283,0.1298,0.1297,0.13,0.1318,0.1321,0.1324,0.1326,0.1338,0.1341,0.1352,0.1382,0.1354,0.1355,0.1412,0.1414,0.1415,0.1443,0,0,0,0,0,0,0.1269,0.1269,0.1279,0.128,0.1283,0.1296,0.1297,0.13,0.1317,0.1319,0.1336,0.1338,0.1338,0.135,0.1353,0.1383,0.1355,0.1411,0.1413,0.1415,0.1441,0.1445,0.1449,0,0,0,0,0,0.1268,0.128,0.1279,0.128,0.1291,0.1296,0.13,0.1311,0.1318,0.1328,0.1333,0.1338,0.1365,0.1351,0.1354,0.1386,0.141,0.1412,0.1415,0.1439,0.1444,0.1449,0,0,0,0,0,0,0.1278,0.1283,0.1282,0.1293,0.1295,0.1299,0.1315,0.1318,0.1332,0.1339,0.1341,0.1343,0.1366,0.137,0.1356,0.141,0.1393,0.1396,0.141,0.1415,0.1419,0.1431,0.1356,0,0,0,0,0,0.1284,0.1296,0.1294,0.1303,0.1307,0.1313,0.1322,0.1326,0.1332,0.134,0.1348,0.1363,0.1378,0.1389,0.1399,0.1424,0.1414,0.145,0.1454,0.1458,0.147,0.1482,0.1488,0.1423,0.1423,0.1423,0,0,0.1282,0.1294,0.1295,0.1307,0.1313,0.132,0.1319,0.1334,0.1342,0.134,0.1362,0.1374,0.1385,0.1412,0.1425,0.142,0.1464,0.146,0.1463,0.1474,0.1484,0.1491,0.1496,0.1424,0.1424,0.1424,0,0,0.1288,0.1302,0.1312,0.1321,0.1336,0.1339,0.1344,0.1353,0.1362,0.138,0.1383,0.1409,0.1432,0.1446,0.1456,0.149,0.148,0.1503,0.1539,0.155,0.1555,0.156,0.1522,0.1523,0.151,0.151,0.151,0,0.1287,0.1301,0.1315,0.1332,0.1338,0.1347,0.1351,0.1365,0.1376,0.1388,0.1392,0.1444,0.1451,0.1487,0.1504,0.15,0.149,0.1517,0.1555,0.1559,0.1564,0.1524,0.1525,0.1512,0.1512,0.1511,0.1511,0,0.1298,0.1313,0.1323,0.1344,0.1353,0.1363,0.1372,0.139,0.1408,0.1422,0.1465,0.1482,0.1513,0.1528,0.153,0.1574,0.1548,0.1552,0.154,0.1572,0.1527,0.1528,0.1514,0.1513,0.1513,0.1513,0,0,0.1292,0.1319,0.1328,0.1339,0.136,0.1371,0.1388,0.1406,0.143,0.1464,0.1498,0.1542,0.1563,0.1577,0.1589,0.1615,0.1624,0.1607,0.1607,0.1565,0.1617,0.1507,0.1496,0.164,0.1641,0.1642,0.1561,0,0.1295,0.1318,0.1332,0.1355,0.1365,0.1381,0.1397,0.1422,0.1448,0.1487,0.1529,0.1567,0.1576,0.1602,0.1629,0.163,0.1633,0.1644,0.1598,0.1595,0.1491,0.1496,0.1388,0.13,0.1561,0.1561,0.1561,0,0.1301,0.1326,0.1333,0.1365,0.1371,0.1383,0.1419,0.1434,0.1484,0.1511,0.1562,0.1592,0.1636,0.1644,0.1657,0.1665,0.1646,0.1644,0.164,0.1534,0.1488,0.1318,0.1291,0.1562,0.1562,0.1562,0.1562,0,0.1294,0.1328,0.1332,0.1343,0.1377,0.1388,0.1404,0.1443,0.1462,0.1526,0.1554,0.1611,0.1629,0.1648,0.163,0.1653,0.1627,0.1645,0.1519,0.1508,0.1405,0.1384,0.1649,0.1649,0.165,0.165,0.165,0,0.1287,0.1317,0.1332,0.1346,0.1372,0.139,0.1418,0.1447,0.1485,0.1503,0.1564,0.1581,0.1637,0.1626,0.1626,0.155,0.1607,0.1519,0.1489,0.1405,0.1386,0.1617,0.1615,0.1647,0.1647,0.1648,0.1649,0,0.1293,0.1296,0.1324,0.1354,0.1365,0.1387,0.1417,0.1428,0.1471,0.1494,0.1514,0.1554,0.1531,0.1542,0.1541,0.1505,0.1472,0.1425,0.1295,0.1251,0.1347,0.1347,0.1291,0.1287,0.1283,0.128,0.1277,0,0.1298,0.1293,0.1327,0.1326,0.1342,0.1372,0.1373,0.1418,0.142,0.1459,0.1453,0.1454,0.1429,0.1363,0.1314,0.1253,0.1341,0.1105,0.1138,0.1339,0.1315,0.1321,0.1326,0.0998,0.0993,0.0989,0.0986,0,0.129,0.129,0.1297,0.1309,0.1308,0.1329,0.1333,0.134,0.1369,0.1374,0.1347,0.1335,0.126,0.1145,0.1059,0.1021,0.1115,0.1022,0.1273,0.1103,0.1055,0.1035,0.1051,0.0952,0.0955,0.0958,0.096,0.0961,0.1263,0.1278,0.1259,0.1265,0.1271,0.127,0.125,0.1241,0.1232,0.1197,0.1219,0.1133,0.1097,0.0908,0.0827,0.0754,0.0862,0.083,0.0845,0.0864,0.0842,0.0791,0.0631,0.0633,0.0634,0.0635,0.0636,0,0.1206,0.1234,0.1215,0.1206,0.1179,0.1225,0.1201,0.1151,0.1094,0.1055,0.101,0.0856,0.0739,0.0697,0.0531,0.0488,0.0522,0.0457,0.052,0.0553,0.0582,0.0551,0.026,0.0259,0.0258,0.0257,0,0,0.1176,0.1147,0.114,0.1096,0.1109,0.1065,0.1048,0.0975,0.0922,0.0824,0.0739,0.0742,0.0703,0.0507,0.0444,0.0331,0.0451,0.0298,0.0601,0.0712,0.0741,0.0792,0.0778,0,0,0,0,0]},{"header":{"parameterUnit":"m.s-1","parameterCategory":2,"la1":30.2991,"la2":30.254,"lo1":-89.0895,"lo2":-89.0444,"dy":0.0017,"dx":0.0017,"nx":28,"ny":28,"refTime":"2023-10-09T03:00:00:Z","depth":"2","parameterNumber":3,"parameterNumberName":"V-component_of_CURRENTS"},"data":[0,0,0,0,0,0,0,0,0,0,0,0,0,0,0,0,0,0,0,0,0,0,0,0,0,0,0,0,0,0,0,0,0,0,0,0,0,0,0,0,0,0,0,0,0,0,0,0,0,0,0,0,0,0,0,0,0,0,0.0333,0.0334,0,0.0355,0.0356,0.0356,0.0357,0.0357,0.0357,0.0356,0.0362,0.0362,0.0362,0,0,0,0,0,0,0,0,0,0,0,0,0,0.0257,0.0259,0.0333,0.0334,0.0334,0.0355,0.0356,0.0356,0.0357,0.0357,0.0357,0.0356,0.0362,0.0362,0.0362,0,0,0,0,0,0,0,0,0,0,0,0,0,0.0285,0.0259,0.0333,0.0338,0.0339,0.0355,0.0356,0.0356,0.0357,0.0357,0.0357,0.0356,0.0361,0.0362,0.0362,0.0371,0,0,0.0364,0.0364,0,0,0,0,0,0,0,0,0.0284,0.0288,0.0337,0.0338,0.0338,0.0354,0.0331,0.036,0.0357,0.0349,0.0356,0.0356,0.0358,0.0359,0.0363,0.0371,0.0371,0.0364,0.0364,0.0364,0.0364,0,0,0,0,0,0,0,0.0282,0.0287,0.0341,0.0337,0.0338,0.0327,0.0331,0.0336,0.0354,0.035,0.035,0.0354,0.0358,0.0362,0.0363,0.0371,0.0364,0.0364,0.0365,0.0365,0.0381,0.0381,0,0,0,0,0,0,0.0283,0.0285,0.0341,0.0342,0.0311,0.0329,0.0333,0.0349,0.0354,0.0355,0.0354,0.0354,0.0362,0.0362,0.0363,0.0376,0.0364,0.0365,0.0365,0.0381,0.0381,0.0382,0,0,0,0,0,0,0.0282,0.0288,0.034,0.0314,0.032,0.033,0.0348,0.0349,0.0353,0.0358,0.0358,0.0356,0.0362,0.0362,0.037,0.0376,0.0365,0.0365,0.0381,0.0381,0.0381,0.0399,0,0,0,0,0,0,0.028,0.0288,0.0297,0.0315,0.0321,0.0351,0.0348,0.035,0.0356,0.0356,0.036,0.036,0.0361,0.0369,0.037,0.0376,0.0366,0.0381,0.0381,0.0381,0.0399,0.04,0.0402,0,0,0,0,0,0.0277,0.0296,0.0298,0.0304,0.0335,0.0351,0.0354,0.0359,0.0356,0.0361,0.0363,0.036,0.0372,0.037,0.0371,0.0377,0.0381,0.0381,0.0381,0.0398,0.04,0.0402,0,0,0,0,0,0,0.0266,0.0298,0.0301,0.0327,0.0337,0.0352,0.0359,0.036,0.0366,0.0366,0.0366,0.0366,0.0374,0.0373,0.0371,0.0382,0.0374,0.0375,0.0387,0.0388,0.039,0.0405,0.0366,0,0,0,0,0,0.0268,0.0291,0.0311,0.033,0.0338,0.0347,0.0353,0.0357,0.0366,0.0368,0.037,0.0373,0.0377,0.038,0.0383,0.0392,0.0391,0.0395,0.0397,0.0398,0.0411,0.0415,0.0419,0.0383,0.0383,0.0383,0,0,0.0266,0.0288,0.0299,0.0328,0.0338,0.0357,0.035,0.0364,0.0378,0.0368,0.0384,0.0379,0.038,0.039,0.0393,0.039,0.0404,0.0399,0.04,0.0412,0.0416,0.042,0.0423,0.0383,0.0383,0.0383,0,0,0.0278,0.0296,0.0319,0.0332,0.0352,0.0362,0.0366,0.0381,0.0386,0.0399,0.0394,0.0395,0.0402,0.0405,0.0408,0.042,0.0412,0.0414,0.0437,0.0441,0.0444,0.0447,0.0436,0.0438,0.0416,0.0416,0.0416,0,0.0271,0.0311,0.0324,0.0349,0.0365,0.0366,0.0389,0.0396,0.0409,0.0417,0.0407,0.0419,0.0414,0.0431,0.0431,0.0425,0.042,0.043,0.0444,0.0447,0.0449,0.0438,0.044,0.0417,0.0417,0.0417,0.0417,0,0.0305,0.0331,0.0346,0.0382,0.0397,0.0417,0.0432,0.0441,0.0443,0.045,0.0463,0.0455,0.0464,0.0455,0.0448,0.0463,0.045,0.0444,0.0441,0.0454,0.0441,0.0442,0.0418,0.0418,0.0417,0.0417,0,0,0.0299,0.0359,0.0363,0.0387,0.0419,0.0436,0.0459,0.0484,0.0502,0.0501,0.0525,0.052,0.0511,0.0513,0.0498,0.0497,0.05,0.0479,0.0479,0.0472,0.0499,0.05,0.0501,0.0496,0.0496,0.0497,0.0477,0,0.0319,0.0381,0.0402,0.0445,0.0475,0.0486,0.051,0.0528,0.0538,0.0558,0.0549,0.0563,0.0534,0.0536,0.0532,0.0513,0.0507,0.0505,0.0485,0.0484,0.0486,0.0505,0.0516,0.0501,0.0478,0.0478,0.0478,0,0.0344,0.0385,0.0441,0.0489,0.0502,0.0523,0.0564,0.0586,0.0608,0.0615,0.0624,0.0617,0.0618,0.059,0.0569,0.0568,0.0538,0.0517,0.0516,0.0517,0.0489,0.0486,0.0504,0.0481,0.0481,0.0481,0.0481,0,0.0348,0.0407,0.0457,0.0475,0.0529,0.0549,0.0573,0.0602,0.0628,0.0653,0.0671,0.0668,0.0668,0.0641,0.0592,0.0583,0.0565,0.0547,0.0518,0.0517,0.0525,0.0524,0.0537,0.0537,0.0537,0.0537,0.0537,0,0.037,0.0399,0.0463,0.0492,0.0537,0.0565,0.061,0.0631,0.0669,0.0706,0.07,0.072,0.0682,0.0664,0.0615,0.0575,0.0583,0.0533,0.0521,0.0529,0.0529,0.0513,0.0511,0.0536,0.0536,0.0536,0.0536,0,0.0361,0.0406,0.046,0.0526,0.0543,0.0574,0.0632,0.0667,0.0697,0.0746,0.0757,0.0764,0.0742,0.0695,0.0647,0.0607,0.0566,0.0545,0.0551,0.0541,0.0506,0.0504,0.052,0.052,0.052,0.052,0.052,0,0.0368,0.04,0.048,0.0513,0.0541,0.059,0.0628,0.0674,0.0716,0.077,0.0797,0.0793,0.0795,0.0727,0.0664,0.0595,0.0567,0.0551,0.0542,0.0522,0.0508,0.0507,0.0505,0.0547,0.0548,0.0548,0.0548,0,0.0375,0.0403,0.0452,0.0522,0.0569,0.0621,0.0678,0.0717,0.0778,0.0815,0.0855,0.086,0.0814,0.0757,0.0671,0.0623,0.0567,0.0553,0.0541,0.0554,0.0547,0.0534,0.0532,0.055,0.055,0.055,0.055,0.055,0.0377,0.0402,0.0473,0.0531,0.0587,0.0649,0.0691,0.0753,0.0814,0.0871,0.0878,0.0873,0.0832,0.072,0.065,0.0575,0.0589,0.0547,0.0547,0.0546,0.0557,0.0552,0.0556,0.0556,0.0555,0.0555,0.0555,0,0.0394,0.0419,0.0478,0.0553,0.0607,0.064,0.0725,0.0765,0.083,0.0866,0.0889,0.0815,0.0776,0.0705,0.0613,0.0565,0.0553,0.0524,0.0524,0.0524,0.0524,0.0533,0.0526,0.0525,0.0524,0.0524,0,0,0.0399,0.0447,0.0475,0.0554,0.0605,0.0672,0.0719,0.0778,0.0817,0.0834,0.0823,0.084,0.0786,0.0696,0.064,0.058,0.0554,0.056,0.0597,0.0606,0.0605,0.0559,0.0576,0,0,0,0,0]}],[{"header":{"parameterUnit":"m.s-1","parameterCategory":2,"la1":30.2991,"la2":30.254,"lo1":-89.0895,"lo2":-89.0444,"dy":0.0017,"dx":0.0017,"nx":28,"ny":28,"refTime":"2023-10-09T03:00:00:Z","depth":"4","parameterNumber":2,"parameterNumberName":"U-component_of_CURRENTS"},"data":[0,0,0,0,0,0,0,0,0,0,0,0,0,0,0,0,0,0,0,0,0,0,0,0,0,0,0,0,0,0,0,0,0,0,0,0,0,0,0,0,0,0,0,0,0,0,0,0,0,0,0,0,0,0,0,0,0,0,0.0509,0.0509,0,0.0553,0.0554,0.0555,0.0596,0.0597,0.0597,0.0598,0.0646,0.0647,0.0648,0,0,0,0,0,0,0,0,0,0,0,0,0,0.0442,0.0443,0.0509,0.051,0.051,0.0553,0.0554,0.0555,0.0596,0.0597,0.0597,0.0598,0.0646,0.0647,0.0648,0,0,0,0,0,0,0,0,0,0,0,0,0,0.0478,0.0444,0.0509,0.0535,0.0538,0.0553,0.0554,0.0555,0.0596,0.0597,0.0597,0.0598,0.0646,0.0647,0.0648,0.0642,0,0,0.0652,0.0653,0,0,0,0,0,0,0,0,0.0476,0.048,0.0531,0.0534,0.0537,0.0569,0.0548,0.0584,0.0596,0.0575,0.0598,0.0598,0.062,0.0624,0.0631,0.0645,0.0647,0.0652,0.0653,0.0654,0.0654,0,0,0,0,0,0,0,0.0473,0.0479,0.0527,0.0532,0.0535,0.0539,0.0545,0.0555,0.0594,0.0577,0.058,0.0583,0.0622,0.063,0.0633,0.0648,0.0652,0.0653,0.0654,0.0655,0.0744,0.0745,0,0,0,0,0,0,0.0467,0.0476,0.0526,0.0529,0.0507,0.0539,0.0546,0.0559,0.0593,0.0599,0.0583,0.0585,0.0627,0.0631,0.0635,0.0678,0.0654,0.0655,0.0656,0.0742,0.0744,0.0746,0,0,0,0,0,0,0.0465,0.0471,0.0524,0.0502,0.0509,0.054,0.0554,0.0559,0.0581,0.0598,0.0604,0.06,0.0628,0.0633,0.0673,0.0678,0.0655,0.0657,0.074,0.0743,0.0745,0.0733,0,0,0,0,0,0,0.0463,0.0471,0.0479,0.0502,0.051,0.0539,0.0553,0.056,0.0581,0.0585,0.0614,0.0619,0.0629,0.0672,0.0675,0.068,0.0658,0.0738,0.0741,0.0744,0.0732,0.0735,0.0738,0,0,0,0,0,0.0461,0.0468,0.048,0.0486,0.0521,0.0539,0.0544,0.0568,0.0581,0.059,0.0626,0.0619,0.0693,0.0674,0.0677,0.0682,0.0737,0.0741,0.0744,0.073,0.0735,0.0738,0,0,0,0,0,0,0.0444,0.0473,0.0487,0.0503,0.0523,0.0546,0.0559,0.0572,0.0606,0.0619,0.0636,0.0644,0.068,0.0692,0.067,0.0722,0.0714,0.0718,0.0703,0.0707,0.071,0.072,0.0659,0,0,0,0,0,0.0443,0.0457,0.0484,0.0497,0.0511,0.0537,0.0549,0.0566,0.0595,0.0612,0.0631,0.0664,0.0695,0.071,0.0734,0.0758,0.0774,0.0768,0.0771,0.0773,0.0788,0.0827,0.0834,0.0758,0.0757,0.0757,0,0,0.0432,0.0457,0.046,0.0494,0.0516,0.0535,0.0547,0.0571,0.0589,0.061,0.0647,0.0672,0.0706,0.0739,0.0755,0.0749,0.0801,0.0778,0.0779,0.0793,0.0831,0.0839,0.0845,0.076,0.0759,0.0759,0,0,0.0425,0.0452,0.0463,0.0483,0.0519,0.0538,0.0547,0.0578,0.0599,0.0639,0.066,0.0696,0.0738,0.076,0.0779,0.0815,0.0816,0.0822,0.0841,0.0878,0.0884,0.089,0.0901,0.0907,0.0822,0.0822,0.0822,0,0.0414,0.044,0.0466,0.0489,0.051,0.0541,0.0561,0.0583,0.0621,0.0644,0.0656,0.0733,0.0751,0.0794,0.0815,0.0819,0.0838,0.0816,0.088,0.0886,0.0892,0.0902,0.0909,0.0822,0.0822,0.0822,0.0822,0,0.0414,0.0442,0.0455,0.0497,0.0519,0.0543,0.0578,0.0603,0.0638,0.0662,0.0718,0.0753,0.0802,0.0807,0.0827,0.0875,0.0873,0.0875,0.0862,0.0899,0.0907,0.0915,0.0821,0.0821,0.0822,0.0822,0,0,0.0375,0.0441,0.0448,0.0477,0.0531,0.0549,0.0587,0.0631,0.0665,0.0703,0.0751,0.0802,0.0825,0.085,0.0866,0.09,0.0948,0.0913,0.0915,0.0909,0.1021,0.0889,0.0885,0.0964,0.0966,0.0967,0.1001,0,0.0374,0.0418,0.0452,0.0495,0.0524,0.057,0.0605,0.0647,0.0692,0.0742,0.0783,0.0838,0.0838,0.0873,0.0905,0.0944,0.0974,0.0938,0.1001,0.1003,0.0869,0.0892,0.0973,0.1007,0.1009,0.1011,0.1012,0,0.0362,0.0402,0.0444,0.0516,0.0534,0.0566,0.0638,0.0671,0.074,0.0779,0.0831,0.087,0.0925,0.0929,0.0999,0.098,0.101,0.1032,0.1034,0.0925,0.0886,0.0972,0.1026,0.1025,0.1024,0.1023,0.1022,0,0.0322,0.0394,0.0434,0.0456,0.0536,0.0573,0.062,0.0687,0.0725,0.0808,0.0846,0.0912,0.0955,0.1005,0.1037,0.1039,0.1107,0.1108,0.1013,0.1003,0.1116,0.111,0.1172,0.1172,0.1172,0.1172,0.1172,0,0.0304,0.0334,0.0427,0.0446,0.0508,0.0566,0.0633,0.0681,0.0758,0.0802,0.0865,0.0901,0.0985,0.1023,0.1054,0.1036,0.1115,0.102,0.1007,0.1108,0.1101,0.112,0.1113,0.1173,0.1173,0.1172,0.1172,0,0.0251,0.0304,0.0354,0.0452,0.049,0.0531,0.0637,0.0677,0.075,0.0809,0.084,0.0914,0.0952,0.0997,0.1074,0.1036,0.105,0.1029,0.1115,0.1106,0.0921,0.0914,0.0933,0.0928,0.0925,0.0922,0.0919,0,0.0229,0.0251,0.0352,0.0389,0.0441,0.052,0.0572,0.0664,0.0702,0.08,0.0815,0.0882,0.0919,0.0908,0.096,0.0977,0.0971,0.0964,0.0962,0.0913,0.0899,0.0898,0.0896,0.0914,0.0913,0.0912,0.0911,0,0.0196,0.0232,0.0279,0.0357,0.0419,0.0475,0.0556,0.0584,0.0679,0.0747,0.0779,0.0799,0.0823,0.085,0.0854,0.0872,0.0959,0.0926,0.0934,0.0933,0.089,0.088,0.0882,0.0898,0.09,0.0901,0.0902,0,0.0177,0.0197,0.0264,0.0331,0.0388,0.042,0.0473,0.0531,0.0581,0.0691,0.0698,0.0757,0.0823,0.0794,0.0803,0.0791,0.079,0.077,0.0787,0.0801,0.0736,0.066,0.059,0,0,0,0,0,0.0167,0.0188,0.0241,0.0298,0.0343,0.0381,0.0457,0.0507,0.0602,0.0602,0.0653,0.0674,0.0679,0.0702,0.0666,0.0728,0.0784,0.0679,0.0768,0.0829,0.0843,0.0775,0,0,0,0,0,0,0.016,0.0199,0.0228,0.0258,0.0287,0.033,0.0374,0.0437,0.0447,0.0543,0.0552,0.0609,0.0626,0.0693,0.0647,0.0651,0.0686,0.0713,0.071,0.082,0.0833,0.0845,0.078,0,0,0,0,0]},{"header":{"parameterUnit":"m.s-1","parameterCategory":2,"la1":30.2991,"la2":30.254,"lo1":-89.0895,"lo2":-89.0444,"dy":0.0017,"dx":0.0017,"nx":28,"ny":28,"refTime":"2023-10-09T03:00:00:Z","depth":"4","parameterNumber":3,"parameterNumberName":"V-component_of_CURRENTS"},"data":[0,0,0,0,0,0,0,0,0,0,0,0,0,0,0,0,0,0,0,0,0,0,0,0,0,0,0,0,0,0,0,0,0,0,0,0,0,0,0,0,0,0,0,0,0,0,0,0,0,0,0,0,0,0,0,0,0,0,0.0303,0.0304,0,0.0326,0.0327,0.0327,0.0334,0.0334,0.0334,0.0334,0.0355,0.0355,0.0356,0,0,0,0,0,0,0,0,0,0,0,0,0,0.0257,0.0258,0.0303,0.0304,0.0304,0.0326,0.0327,0.0327,0.0334,0.0334,0.0334,0.0334,0.0355,0.0355,0.0356,0,0,0,0,0,0,0,0,0,0,0,0,0,0.0278,0.0258,0.0303,0.0311,0.0311,0.0326,0.0327,0.0327,0.0334,0.0334,0.0334,0.0334,0.0354,0.0355,0.0356,0.0364,0,0,0.0359,0.0359,0,0,0,0,0,0,0,0,0.0277,0.028,0.0309,0.031,0.0311,0.0327,0.0318,0.0339,0.0334,0.0325,0.0334,0.0334,0.0346,0.0347,0.0352,0.0365,0.0366,0.0359,0.036,0.036,0.036,0,0,0,0,0,0,0,0.0275,0.0279,0.0312,0.0309,0.0311,0.0309,0.0312,0.0322,0.0336,0.0326,0.0327,0.033,0.0346,0.0351,0.0352,0.0367,0.0359,0.036,0.036,0.0361,0.039,0.039,0,0,0,0,0,0,0.0274,0.0277,0.0312,0.0313,0.0293,0.031,0.0314,0.0322,0.0336,0.0338,0.033,0.033,0.0349,0.0351,0.0353,0.0377,0.036,0.0361,0.0361,0.039,0.039,0.0391,0,0,0,0,0,0,0.0273,0.0277,0.0311,0.0295,0.03,0.0311,0.0321,0.0323,0.0331,0.0339,0.034,0.0337,0.0349,0.0352,0.0365,0.0377,0.0361,0.0362,0.039,0.039,0.039,0.0416,0,0,0,0,0,0,0.0271,0.0276,0.0283,0.0296,0.03,0.0323,0.0321,0.0323,0.0333,0.0334,0.0345,0.0347,0.0349,0.0363,0.0365,0.0378,0.0363,0.039,0.039,0.039,0.0415,0.0417,0.0419,0,0,0,0,0,0.027,0.0282,0.0283,0.0287,0.0309,0.0324,0.0326,0.0334,0.0333,0.034,0.0346,0.0347,0.0367,0.0364,0.0367,0.038,0.0389,0.039,0.039,0.0414,0.0416,0.0419,0,0,0,0,0,0,0.0267,0.0284,0.0286,0.0303,0.0313,0.0325,0.0334,0.0337,0.0347,0.0348,0.0352,0.0355,0.037,0.0369,0.0366,0.0388,0.0377,0.0378,0.0394,0.0397,0.0399,0.0406,0.0364,0,0,0,0,0,0.0269,0.0282,0.0295,0.0309,0.0314,0.0324,0.0331,0.0336,0.0346,0.035,0.0358,0.0365,0.0373,0.038,0.0387,0.0402,0.0394,0.041,0.0412,0.0414,0.042,0.0413,0.0415,0.0392,0.0392,0.0392,0,0,0.0273,0.0283,0.0291,0.0309,0.0317,0.0334,0.0328,0.0342,0.0357,0.0351,0.0374,0.0374,0.0378,0.0394,0.0401,0.0397,0.0415,0.0414,0.0416,0.0422,0.0414,0.0416,0.0418,0.0392,0.0392,0.0392,0,0,0.0288,0.0295,0.0312,0.0321,0.0335,0.0342,0.0347,0.0362,0.0369,0.0388,0.0386,0.0392,0.0409,0.0414,0.0418,0.0435,0.0425,0.0435,0.0456,0.0449,0.0451,0.0452,0.0442,0.0443,0.0438,0.0438,0.0438,0,0.0289,0.0315,0.0318,0.0335,0.0348,0.0348,0.0369,0.0378,0.0394,0.0402,0.0399,0.0418,0.042,0.0438,0.0444,0.0441,0.0433,0.0448,0.0452,0.0453,0.0455,0.0444,0.0444,0.0439,0.0439,0.0439,0.0439,0,0.0319,0.0337,0.0348,0.0371,0.0383,0.0401,0.0412,0.0423,0.043,0.0437,0.0454,0.0454,0.0464,0.0464,0.0463,0.0474,0.0464,0.0454,0.0447,0.0459,0.0446,0.0446,0.0441,0.0441,0.044,0.044,0,0,0.0327,0.0362,0.0368,0.0382,0.0404,0.0416,0.0441,0.0461,0.0475,0.0484,0.0503,0.0513,0.0505,0.0508,0.0502,0.0499,0.0498,0.0484,0.0483,0.0476,0.048,0.0466,0.0464,0.0488,0.0488,0.0489,0.0467,0,0.035,0.0389,0.0403,0.0438,0.0457,0.0465,0.0487,0.0501,0.0511,0.0526,0.0524,0.0536,0.0523,0.0527,0.0523,0.0504,0.0499,0.0505,0.0468,0.0467,0.0454,0.0464,0.0489,0.0467,0.0467,0.0467,0.0467,0,0.0377,0.0399,0.044,0.0469,0.0478,0.0498,0.0526,0.0546,0.0562,0.0568,0.0575,0.057,0.0573,0.0556,0.0534,0.0538,0.0514,0.0497,0.0495,0.0475,0.0452,0.0453,0.0466,0.0466,0.0466,0.0466,0.0466,0,0.0382,0.0424,0.0457,0.0469,0.0502,0.052,0.0539,0.0559,0.0577,0.0594,0.0601,0.06,0.0598,0.0574,0.0541,0.0537,0.0512,0.0497,0.0462,0.0461,0.0469,0.0467,0.0481,0.0482,0.0482,0.0482,0.0482,0,0.0399,0.0422,0.0461,0.0478,0.0508,0.053,0.0563,0.0577,0.0604,0.0622,0.0621,0.0626,0.0602,0.0584,0.0551,0.0508,0.0517,0.047,0.0457,0.0479,0.0479,0.0468,0.0467,0.0481,0.0481,0.0481,0.0481,0,0.0392,0.0424,0.0456,0.0498,0.0512,0.0531,0.0576,0.0597,0.0619,0.0644,0.065,0.0647,0.0624,0.0596,0.0555,0.0518,0.0481,0.0462,0.0492,0.048,0.0431,0.0431,0.042,0.042,0.0419,0.0419,0.0418,0,0.0391,0.041,0.0463,0.0482,0.0501,0.0537,0.0562,0.0599,0.062,0.0651,0.0657,0.0651,0.0641,0.0571,0.0542,0.0485,0.0471,0.0446,0.0438,0.0438,0.0426,0.0427,0.0428,0.0417,0.0417,0.0417,0.0417,0,0.0377,0.0401,0.0427,0.0473,0.0504,0.0538,0.0575,0.0592,0.0634,0.0655,0.0652,0.0629,0.0603,0.056,0.0521,0.0478,0.046,0.044,0.044,0.0433,0.0434,0.0423,0.0425,0.0415,0.0415,0.0415,0.0416,0,0.0364,0.0373,0.0417,0.0453,0.0493,0.0527,0.0553,0.0579,0.0606,0.0639,0.0635,0.0619,0.0616,0.0556,0.0519,0.048,0.0462,0.0431,0.0432,0.0433,0.0444,0.0449,0.0426,0,0,0,0,0,0.0349,0.0362,0.0395,0.0437,0.0479,0.0508,0.0556,0.0582,0.0622,0.0614,0.0627,0.0604,0.0555,0.0537,0.0494,0.0507,0.0457,0.0453,0.0422,0.0405,0.0407,0.0416,0,0,0,0,0,0,0.0336,0.0365,0.0384,0.042,0.0447,0.0494,0.0528,0.0558,0.0556,0.0587,0.0562,0.0569,0.0524,0.0573,0.0483,0.0476,0.0444,0.0441,0.0439,0.0403,0.0405,0.0407,0.0417,0,0,0,0,0]}]]